Hourly Data Report for October 04, 2013

All times are specified in Local Standard Time (LST). Add 1 hour to adjust for Daylight Saving Time where and when it is observed.

CAPE DORSET A
NUNAVUT

64°13'49.000" N
76°31'30.000" W
48.20 m
2400637
71366
YTE

Download Data

Hourly Data (October 2013)
Hourly Data Report for October 4, 2013
Temp Definition
°C
Dew Point Temp Definition
°C
Rel Hum Definition
%
Wind Dir Definition
10's deg

Wind Spd Definition
km/h
Visibility Definition
km
Stn Press Definition
kPa
Hmdx Definition


Wind Chill Definition


Weather Definition


TIME
00:00 Legend Double Dagger -2.4 -4.4 86 34 17 16.1 101.04   -8 LegendNANA
01:00 Legend Double Dagger -1.9 -4.1 85 36 17 16.1 101.05   -7 LegendNANA
02:00 Legend Double Dagger -1.7 -3.8 85 36 13 16.1 101.09   -6 LegendNANA
03:00 Legend Double Dagger -1.4 -3.8 84 35 17 16.1 101.10   -7 LegendNANA
04:00 Legend Double Dagger -1.3 -3.7 84 36 13 16.1 101.12   -6 LegendNANA
05:00 Legend Double Dagger -1.1 -3.8 82 1 17 16.1 101.14   -6 LegendNANA
06:00 Legend Double Dagger -0.8 -3.2 84 36 9 16.1 101.19   -4 LegendNANA
07:00 Legend Double Dagger -0.7 -2.6 87 33 8 16.1 101.21   -4 LegendNANA
08:00 Legend Double Dagger -0.4 -3.3 81 36 22 16.1 101.24   -6 LegendNANA
09:00 Legend Double Dagger -0.4 -3.7 79 1 18 16.1 101.27   -5 LegendNANA
10:00 Legend Double Dagger -0.2 -3.5 78 1 22 16.1 101.29   -6 LegendNANA
11:00 Legend Double Dagger 0.0 -3.6 77 36 24 16.1 101.31   -6 LegendNANA
12:00 Legend Double Dagger 0.1 -3.9 75 36 26 16.1 101.34     LegendNANA
13:00 Legend Double Dagger 0.1 -3.6 76 1 21 16.1 101.35     LegendNANA
14:00 Legend Double Dagger -0.5 -3.7 79 1 24 16.1 101.43   -6 LegendNANA
15:00 Legend Double Dagger -1.2 -4.7 77 36 28 16.1 101.46   -8 LegendNANA
16:00 Legend Double Dagger -1.6 -5.2 77 36 30 16.1 101.49   -9 LegendNANA
17:00 Legend Double Dagger -2.0 -5.6 76 1 22 16.1 101.52   -8 LegendNANA
18:00 Legend Double Dagger -2.4 -5.4 80 35 22 16.1 101.54   -9 LegendNANA
19:00 Legend Double Dagger -3.3 -6.4 79 3 21 16.1 101.57   -10 LegendNANA
20:00 Legend Double Dagger -3.4 -6.8 77 1 21 16.1 101.59   -10 LegendNANA
21:00 Legend Double Dagger -3.4 -6.6 79 3 17 16.1 101.58   -9 LegendNANA
22:00 Legend Double Dagger -3.4 -6.3 80 1 18 16.1 101.57   -9 LegendNANA
23:00 Legend Double Dagger -3.4 -6.2 81 1 17 16.1 101.55   -9 LegendNANA

Notes on Data Quality.

Legend

  • E = Estimated
  • M = Missing
  • NA = Not Available
  • ‡ = Partner data that is not subject to review by the National Climate Archives
Date modified: